Hourly Data Report for September 18, 2017

All times are specified in Local Standard Time (LST). Add 1 hour to adjust for Daylight Saving Time where and when it is observed.

POND INLET A
NUNAVUT

72°41'22.000" N
77°58'08.000" W
61.60 m
2403206
71095
YIO

Download Data

Hourly Data (September 2017)
Hourly Data Report for September 18, 2017
Temp Definition
°C
Dew Point Temp Definition
°C
Rel Hum Definition
%
Wind Dir Definition
10's deg

Wind Spd Definition
km/h
Visibility Definition
km
Stn Press Definition
kPa
Hmdx Definition


Wind Chill Definition


Weather Definition


TIME
00:00 Legend Double Dagger -2.1 -2.5 97 7 9 3.2 100.16   -6 Snow
01:00 Legend Double Dagger -1.6 -2.0 97 6 9 1.6 100.12   -5 Snow
02:00 Legend Double Dagger -1.4 -1.8 97 5 9 4.0 100.08   -5 Snow
03:00 Legend Double Dagger -1.3 -1.7 97 6 11 4.8 100.05   -5 Snow
04:00 Legend Double Dagger -1.1 -1.5 97 6 15 4.8 100.02   -6 Snow
05:00 Legend Double Dagger -1.0 -1.4 97 6 15 11.3 99.96   -6 Snow
06:00 Legend Double Dagger -0.4 -0.7 98 5 15 3.2 99.97   -5 Snow
07:00 Legend Double Dagger -0.2 -0.5 98 5 13 1.6 99.96   -4 Snow
08:00 Legend Double Dagger 0.1 -0.2 98 7 5 1.6 99.95     Snow
09:00 Legend Double Dagger 0.5 0.1 97   0 2.0 99.96     Snow
10:00 Legend Double Dagger 1.3 0.3 93 2 8 16.1 99.99     Rain,Snow
11:00 Legend Double Dagger 1.0 -1.3 85 5 15 4.0 100.01     Snow
12:00 Legend Double Dagger 1.3 -1.4 82 5 17 16.1 100.04     Snow
13:00 Legend Double Dagger 1.5 -1.8 79 6 18 16.1 100.08     Rain
14:00 Legend Double Dagger 1.3 -2.3 77 5 17 16.1 100.11     LegendNANA
15:00 Legend Double Dagger 1.7 -3.2 70 6 21 16.1 100.19     LegendNANA
16:00 Legend Double Dagger 1.3 -2.9 74 5 30 16.1 100.25     LegendNANA
17:00 Legend Double Dagger 1.1 -3.2 73 6 21 16.1 100.32     LegendNANA
18:00 Legend Double Dagger 1.5 -4.1 66 7 28 16.1 100.37     LegendNANA
19:00 Legend Double Dagger 1.3 -3.4 71 6 28 16.1 100.43     LegendNANA
20:00 Legend Double Dagger 1.1 -2.7 76 5 28 16.1 100.48     LegendNANA
21:00 Legend Double Dagger 0.9 -2.7 77 8 18 16.1 100.54     LegendNANA
22:00 Legend Double Dagger 0.9 -2.7 77 5 32 16.1 100.55     LegendNANA
23:00 Legend Double Dagger 0.8 -3.3 74 LegendMM LegendMM LegendMM 100.63     LegendNANA

Notes on Data Quality.

Legend

  • E = Estimated
  • M = Missing
  • NA = Not Available
  • ‡ = Partner data that is not subject to review by the National Climate Archives
Date modified: